sat.trackr.live / text

‹ back to catalog

STARLINK-32840

NORAD 63363 · 2025-063A

PAYLOAD ACTIVE UNKNOWN

§ Identity

Operator
Country
US
Launch date
2025-03-26
Launch site
AFWTR
Launch vehicle
Mass (kg)
RCS (m²)

Purposes: comms

External: N2YO · Heavens-Above · Gunter

§ Orbital elements

Epoch: 2026-05-25T01:37:37.483680Z

Period
94.11 min
Inclination
53.1607°
Eccentricity
0.0001208
Mean motion
15.30202255 rev/d
Perigee alt
474.4 km
Apogee alt
476.0 km
Semi-major
6,853.3 km
B*
4.1752e-4
RAAN
54.8428°
Arg perigee
89.8517°
Mean anomaly
270.2622°
Rev number
6,647

§ Raw data

STARLINK-328401 63363U 25063A   26145.06779495  .00012028  00000+0  41752-3 0  99962 63363  53.1607  54.8428 0001208  89.8517 270.2622 15.30202255 66474

JSON: /api/v1/satellites/63363 · /tle

For live sub-satellite position, see the globe view (requires WebGL).

§ Visibility from observer

Set your observer location to see the next 7 days of passes ≥ 10°. The values pass through the URL so the page stays shareable.

No JS? Fill the form by hand. The geolocation button needs JavaScript.